FW5223 Weather Reports


time (UTC)temp
C
wind
direction
speed
KPH
gust
KPH
rain 1hr
cm
rain 24hr
cm
rain mn
cm
humidity
%
barometer
mb
20260507213035 22 297 9.7 29.0 0.00 0.00 0.00 35 1017.7
20260507211610 21 300 12.9 25.7 0.00 0.00 0.00 36 1017.8
20260507210036 21 298 11.3 32.2 0.00 0.00 0.00 37 1018.0
20260507204535 21 289 11.3 27.4 0.00 0.00 0.00 37 1018.2
20260507203032 21 291 11.3 29.0 0.00 0.00 0.00 37 1018.3
20260507201537 21 302 11.3 22.5 0.00 0.00 0.00 39 1018.4
20260507200030 20 299 11.3 27.4 0.00 0.00 0.00 40 1018.6
20260507194531 20 299 12.9 25.7 0.00 0.00 0.00 41 1018.7
20260507193031 20 295 11.3 27.4 0.00 0.00 0.00 43 1018.8
20260507190033 19 302 14.5 38.6 0.00 0.00 0.00 47 1019.0
20260507183034 19 306 12.9 35.4 0.00 0.00 0.00 50 1019.6
20260507181532 18 294 11.3 25.7 0.00 0.00 0.00 50 1019.7
20260507180030 18 299 9.7 24.1 0.00 0.00 0.00 52 1019.9
20260507174536 18 294 9.7 24.1 0.00 0.00 0.00 53 1020.1
20260507173129 17 290 9.7 25.7 0.00 0.00 0.00 54 1020.3
20260507171534 18 306 11.3 22.5 0.00 0.00 0.00 57 1020.5
20260507170109 17 306 8.0 19.3 0.00 0.00 0.00 58 1020.6
20260507164537 17 322 9.7 24.1 0.00 0.00 0.00 59 1020.6
20260507163037 17 302 8.0 19.3 0.00 0.00 0.00 60 1020.6
20260507161533 16 275 6.4 17.7 0.00 0.00 0.00 60 1020.7
20260507160032 16 278 8.0 20.9 0.00 0.00 0.00 62 1020.9
20260507154530 16 268 9.7 19.3 0.00 0.00 0.00 63 1020.9
20260507153033 16 237 6.4 16.1 0.00 0.00 0.00 65 1021.1
20260507151531 15 278 3.2 11.3 0.00 0.00 0.00 67 1021.1
20260507150106 14 253 4.8 14.5 0.00 0.00 0.00 69 1021.1
20260507144535 13 261 6.4 14.5 0.00 0.00 0.00 72 1021.0
20260507143151 13 277 8.0 19.3 0.00 0.00 0.00 73 1021.0
20260507141530 13 268 4.8 17.7 0.00 0.00 0.00 76 1020.9
20260507134536 11 229 3.2 14.5 0.00 0.00 0.00 77 1020.6
20260507133029 11 297 4.8 19.3 0.00 0.00 0.00 76 1020.4
20260507131535 11 292 8.0 20.9 0.00 0.00 0.00 75 1020.2
20260507130035 12 284 9.7 25.7 0.00 0.00 0.00 75 1020.1
20260507124530 12 279 11.3 24.1 0.00 0.00 0.00 75 1020.1
20260507121530 12 282 11.3 25.7 0.00 0.00 0.00 75 1020.0
20260507120031 12 284 11.3 29.0 0.00 0.00 0.00 75 1019.9
20260507114536 12 284 11.3 24.1 0.00 0.00 0.00 76 1019.9
20260507113107 12 288 8.0 19.3 0.00 0.00 0.00 76 1019.8
20260507111530 12 294 9.7 20.9 0.00 0.00 0.00 76 1019.6
20260507110030 12 302 8.0 25.7 0.00 0.00 0.00 75 1019.5
20260507104607 12 293 8.0 20.9 0.00 0.00 0.00 75 1019.3
20260507103032 13 282 9.7 29.0 0.00 0.00 0.00 74 1019.3
20260507101642 13 277 9.7 30.6 0.00 0.00 0.00 73 1019.4
20260507094534 13 266 8.0 22.5 0.00 0.00 0.00 72 1019.5
20260507093031 13 267 8.0 24.1 0.00 0.00 0.00 72 1019.6
20260507091530 13 270 9.7 24.1 0.00 0.00 0.00 73 1019.7
20260507084535 13 318 8.0 20.9 0.00 0.00 0.00 74 1019.7
20260507083105 13 320 8.0 16.1 0.00 0.00 0.00 74 1019.7
20260507081537 14 324 6.4 19.3 0.00 0.00 0.00 73 1019.7
20260507074606 15 309 6.4 17.7 0.00 0.00 0.00 72 1019.8
20260507071532 15 276 9.7 22.5 0.00 0.00 0.00 72 1019.7
20260507070035 15 275 8.0 22.5 0.00 0.00 0.00 71 1019.7
20260507064531 15 283 6.4 20.9 0.00 0.00 0.00 71 1019.7
20260507061534 15 282 8.0 22.5 0.00 0.00 0.00 70 1019.9
20260507060035 16 276 8.0 24.1 0.00 0.00 0.00 70 1020.0
20260507054529 16 275 8.0 22.5 0.00 0.00 0.00 69 1020.0
20260507053030 16 271 9.7 24.1 0.00 0.00 0.00 68 1020.1
20260507051530 16 276 9.7 24.1 0.00 0.00 0.00 67 1020.0
20260507050045 16 268 8.0 24.1 0.00 0.00 0.00 66 1020.0
20260507044533 16 250 4.8 17.7 0.00 0.00 0.00 65 1020.0
20260507043035 16 277 4.8 14.5 0.00 0.00 0.00 63 1019.9
20260507041531 16 293 4.8 17.7 0.00 0.00 0.00 60 1019.8
20260507040043 17 291 1.6 6.4 0.00 0.00 0.00 56 1019.6
20260507034533 18 294 4.8 16.1 0.00 0.00 0.00 52 1019.5
20260507033035 19 259 4.8 19.3 0.00 0.00 0.00 51 1019.4
20260507031535 19 260 8.0 17.7 0.00 0.00 0.00 51 1019.2
20260507030030 18 267 6.4 19.3 0.00 0.00 0.00 52 1019.2
20260507024531 17 294 4.8 25.7 0.00 0.00 0.00 58 1019.3
20260507023040 17 348 3.2 9.7 0.00 0.00 0.00 58 1019.3
20260507021534 18 331 3.2 16.1 0.00 0.00 0.00 56 1019.3
20260507020030 18 325 6.4 16.1 0.00 0.00 0.00 55 1019.1
20260507014607 18 317 8.0 20.9 0.00 0.00 0.00 54 1019.0
20260507011529 20 306 8.0 22.5 0.00 0.00 0.00 50 1018.9
20260507010144 20 290 11.3 29.0 0.00 0.00 0.00 48 1018.8
20260507004535 21 278 11.3 27.4 0.00 0.00 0.00 46 1018.7
20260507003035 21 274 12.9 35.4 0.00 0.00 0.00 46 1018.6
20260507001531 21 271 12.9 33.8 0.00 0.00 0.00 45 1018.4
20260507000032 21 267 14.5 33.8 0.00 0.00 0.00 43 1018.3
20260506234532 22 264 14.5 33.8 0.00 0.00 0.00 41 1018.2
20260506231530 22 266 12.9 37.0 0.00 0.00 0.00 43 1017.9
20260506230034 22 274 11.3 30.6 0.00 0.00 0.00 44 1018.1
20260506223033 23 268 11.3 32.2 0.00 0.00 0.00 44 1018.6
20260506221530 22 266 12.9 32.2 0.00 0.00 0.00 44 1018.9
20260506220031 22 271 12.9 30.6 0.00 0.00 0.00 43 1018.8
20260506214531 23 269 16.1 37.0 0.00 0.00 0.00 43 1018.3